Location: Chiroubles
(46.1812°N, 4.6660°E)
Time: 02:26:27
(UTC+00:00)

SPOT 5 - Pass Details

Date: 15 August 2020
Orbit: 624 x 814 km, 98.3° (Epoch: 19 September)

Event Time Altitude Azimuth Distance (km) Brightness Sun altitude
Exits shadow 21:17:37 61° 148° (SSE) 716 2.5 -21.5°
Maximum altitude 21:18:20 81° 76° (ENE) 646 2.5 -21.6°
Drops below altitude 10° 21:22:47 10° 348° (NNW) 2,057 6.1 -22.1°
Sets 21:25:02 0° 348° (NNW) 2,994 7.2 -22.3°
